TimeEST,TemperatureF,Dew PointF,Humidity,Sea Level PressureIn,VisibilityMPH,Wind Direction,Wind SpeedMPH,Gust SpeedMPH,PrecipitationIn,Events,Conditions,WindDirDegrees,DateUTC
12:13 AM,32.0,32.0,100,29.41,0.5,North,6.9,-,0.01,Fog,Fog,10,2013-03-04 05:13:00
12:18 AM,32.0,32.0,100,29.41,1.5,North,6.9,-,0.01,,Overcast,360,2013-03-04 05:18:00
12:20 AM,32.0,32.0,100,29.41,2.0,North,8.1,-,0.01,,Overcast,360,2013-03-04 05:20:00
12:26 AM,32.0,32.0,100,29.41,2.5,North,6.9,-,0.01,,Overcast,360,2013-03-04 05:26:00
12:34 AM,32.0,32.0,100,29.41,3.0,North,8.1,-,0.01,,Overcast,360,2013-03-04 05:34:00
12:48 AM,32.0,30.2,93,29.42,2.5,North,10.4,-,0.01,,Overcast,360,2013-03-04 05:48:00
12:53 AM,32.0,32.0,100,29.44,2.0,North,10.4,-,0.01,,Overcast,360,2013-03-04 05:53:00
12:57 AM,32.0,32.0,100,29.42,1.5,North,9.2,-,0.00,,Overcast,360,2013-03-04 05:57:00
1:04 AM,32.0,32.0,100,29.42,1.0,North,6.9,-,0.00,Snow,Light Snow,10,2013-03-04 06:04:00
1:10 AM,32.0,32.0,100,29.42,0.8,North,8.1,-,0.00,Snow,Light Snow,10,2013-03-04 06:10:00
1:21 AM,32.0,30.2,93,29.42,0.5,North,9.2,-,0.01,Fog-Snow,Light Snow,360,2013-03-04 06:21:00
1:28 AM,32.0,30.2,93,29.42,0.8,North,9.2,-,N/A,Snow,Light Snow,360,2013-03-04 06:28:00
1:53 AM,32.0,32.0,100,29.44,1.0,North,6.9,-,0.01,Snow,Light Snow,360,2013-03-04 06:53:00
1:59 AM,32.0,32.0,100,29.42,1.5,North,6.9,-,0.01,Snow,Light Snow,360,2013-03-04 06:59:00
2:06 AM,32.0,30.2,93,29.41,1.0,North,8.1,-,0.01,Snow,Light Snow,350,2013-03-04 07:06:00
2:09 AM,32.0,30.2,93,29.41,0.5,North,6.9,-,0.01,Fog-Snow,Light Snow,360,2013-03-04 07:09:00
2:26 AM,32.0,30.2,93,29.41,1.2,North,8.1,-,0.01,Snow,Light Snow,350,2013-03-04 07:26:00
2:28 AM,32.0,32.0,100,29.41,1.5,North,9.2,-,0.01,Snow,Light Snow,350,2013-03-04 07:28:00
2:31 AM,32.0,30.2,93,29.41,2.0,North,9.2,-,0.01,Snow,Light Snow,350,2013-03-04 07:31:00
2:36 AM,32.0,30.2,93,29.41,3.0,North,10.4,-,0.01,Snow,Light Snow,350,2013-03-04 07:36:00
2:49 AM,32.0,30.2,93,29.41,4.0,North,10.4,-,0.01,,Overcast,350,2013-03-04 07:49:00
2:53 AM,32.0,30.9,96,29.44,4.0,North,10.4,-,0.01,Snow,Light Snow,350,2013-03-04 07:53:00
3:23 AM,33.8,30.2,87,29.42,3.0,North,10.4,-,0.01,Snow,Light Snow,360,2013-03-04 08:23:00
3:53 AM,33.1,32.0,96,29.45,9.0,North,8.1,-,0.01,,Overcast,10,2013-03-04 08:53:00
4:32 AM,33.8,30.2,87,29.43,4.0,NNE,8.1,-,0.00,Snow,Light Snow,20,2013-03-04 09:32:00
4:36 AM,33.8,30.2,87,29.43,2.5,NNE,9.2,-,0.00,Snow,Light Snow,20,2013-03-04 09:36:00
4:53 AM,33.1,30.9,92,29.45,2.0,North,9.2,-,0.01,Snow,Light Snow,10,2013-03-04 09:53:00
4:57 AM,33.8,30.2,87,29.43,1.5,NNE,12.7,17.3,0.00,Snow,Light Snow,20,2013-03-04 09:57:00
5:05 AM,33.8,30.2,87,29.43,1.2,NNE,12.7,18.4,0.00,Snow,Light Snow,20,2013-03-04 10:05:00
5:12 AM,33.8,30.2,87,29.43,1.8,NNE,8.1,18.4,0.00,Snow,Light Snow,20,2013-03-04 10:12:00
5:20 AM,33.8,30.2,87,29.43,2.0,NNE,9.2,-,0.00,Snow,Light Snow,20,2013-03-04 10:20:00
5:41 AM,33.8,30.2,87,29.43,3.0,NNE,9.2,-,N/A,Snow,Light Snow,20,2013-03-04 10:41:00
5:53 AM,33.1,30.9,92,29.46,5.0,North,8.1,-,0.00,Snow,Light Snow,360,2013-03-04 10:53:00
6:05 AM,33.8,32.0,93,29.44,5.0,North,5.8,-,0.00,Snow,Light Snow,360,2013-03-04 11:05:00
6:13 AM,33.8,30.2,87,29.44,6.0,North,10.4,17.3,0.00,Snow,Light Snow,10,2013-03-04 11:13:00
6:46 AM,33.8,32.0,93,29.45,2.0,North,6.9,-,0.00,Snow,Light Snow,350,2013-03-04 11:46:00
6:50 AM,33.8,32.0,93,29.45,1.8,North,8.1,-,0.00,Snow,Light Snow,350,2013-03-04 11:50:00
6:53 AM,33.1,32.0,96,29.47,1.5,North,8.1,-,0.00,Snow,Light Snow,350,2013-03-04 11:53:00
7:03 AM,33.8,32.0,93,29.45,2.0,North,8.1,-,0.00,Snow,Light Snow,360,2013-03-04 12:03:00
7:08 AM,33.8,32.0,93,29.45,5.0,North,8.1,-,0.00,,Overcast,10,2013-03-04 12:08:00
7:19 AM,33.8,32.0,93,29.45,10.0,North,10.4,-,0.00,,Overcast,10,2013-03-04 12:19:00
7:53 AM,34.0,32.0,92,29.48,10.0,NNE,10.4,-,0.00,,Overcast,20,2013-03-04 12:53:00
8:53 AM,35.1,30.9,85,29.48,10.0,NNE,13.8,23.0,0.00,,Overcast,30,2013-03-04 13:53:00
9:53 AM,35.1,30.0,82,29.49,10.0,NE,16.1,26.5,0.00,,Overcast,40,2013-03-04 14:53:00
10:53 AM,35.1,30.0,82,29.51,9.0,NE,15.0,26.5,0.00,,Overcast,40,2013-03-04 15:53:00
11:53 AM,37.0,30.0,76,29.52,10.0,NE,17.3,29.9,0.00,,Overcast,50,2013-03-04 16:53:00
12:53 PM,37.9,28.0,68,29.52,10.0,NE,18.4,32.2,N/A,,Mostly Cloudy,50,2013-03-04 17:53:00
1:49 PM,37.4,28.4,70,29.51,10.0,NE,21.9,28.8,0.00,,Overcast,40,2013-03-04 18:49:00
1:53 PM,37.0,28.9,73,29.54,10.0,NE,17.3,28.8,0.00,,Overcast,50,2013-03-04 18:53:00
2:53 PM,37.0,28.0,70,29.57,10.0,ENE,16.1,23.0,N/A,,Overcast,60,2013-03-04 19:53:00
3:09 PM,35.6,30.2,81,29.55,7.0,NE,13.8,24.2,0.00,Snow,Light Snow,50,2013-03-04 20:09:00
3:37 PM,35.6,30.2,81,29.56,10.0,NE,13.8,-,0.00,,Overcast,50,2013-03-04 20:37:00
3:53 PM,35.1,30.0,82,29.59,10.0,NE,11.5,-,0.00,,Overcast,50,2013-03-04 20:53:00
4:53 PM,35.1,30.0,82,29.62,10.0,NE,10.4,19.6,N/A,,Overcast,50,2013-03-04 21:53:00
5:53 PM,35.1,28.9,78,29.65,10.0,NNE,15.0,20.7,N/A,,Overcast,30,2013-03-04 22:53:00
6:53 PM,34.0,30.0,85,29.68,10.0,NNE,8.1,19.6,N/A,,Overcast,30,2013-03-04 23:53:00
7:53 PM,34.0,28.0,79,29.70,10.0,NE,12.7,23.0,N/A,,Overcast,40,2013-03-05 00:53:00
8:53 PM,34.0,28.0,79,29.73,10.0,NE,13.8,24.2,N/A,,Overcast,40,2013-03-05 01:53:00
9:36 PM,33.8,28.4,81,29.72,10.0,NE,11.5,23.0,N/A,,Overcast,40,2013-03-05 02:36:00
9:53 PM,34.0,28.0,79,29.75,10.0,NE,13.8,25.3,N/A,,Overcast,50,2013-03-05 02:53:00
10:53 PM,33.1,28.0,82,29.77,10.0,NNE,13.8,21.9,N/A,,Overcast,30,2013-03-05 03:53:00
11:53 PM,33.1,28.0,82,29.79,10.0,NNE,11.5,23.0,N/A,,Overcast,30,2013-03-05 04:53:00